Flag for Belgium Weather past 2 weeks in Liège, Belgium

Now
70 °F

Passing clouds.


Feels Like: 70 °F
Forecast: 56 / 77 °F
Wind: 20 mph from Northwest

Location: Bierset

Current Time: Jul 5, 2015 at 5:14:32 PM

Latest Report: Jul 5, 2015 at 4:50 PM


Visibility: N/A

Pressure: 30.01 "Hg

Humidity: 73%

Dew point: 61 °F

Location of LiègeLocation

Historic Weather in Liège — Graph

°F

Liège temperature yesterday

Maximum temperature yesterday: 93 °F (at 1:50 PM)
Minimum temperature yesterday: 72 °F (at 11:50 PM)
Average temperature yesterday: 84 °F

Past Weeks' High & Low Weather Summary

 TemperatureHumidityPressure
High99 °F (Jul 2, 2:50 PM)94% (Jun 21, 2:50 AM)30.27 "Hg (Jun 21, 2:50 AM)
Low46 °F (Jun 22, 10:50 PM)24% (Jul 2, 2:50 PM)29.71 "Hg (Jun 22, 7:20 PM)
Average69 °F63%30.09 "Hg
* Reported Jun 20 3:20 PM — Jul 5 3:50 PM, Liège, Weather by CustomWeather, © 2015

Note: Actual official high and low records may vary slightly from our data, if they occured in-between our weather recording intervals... More about our weather records

Advertising

Liège weather history for previous 24 hours

 ConditionsComfort  
Time TempWeatherWind HumidityBarometerVisibility
3:50 PM
Sun, Jul 5
82 °FPassing clouds.13 mph51%29.98 "HgN/A
3:20 PM81 °FPassing clouds.9 mph58%29.98 "HgN/A
2:50 PM81 °FPassing clouds.9 mph58%29.95 "HgN/A
2:20 PM79 °FPassing clouds.5 mph61%29.95 "HgN/A
1:50 PM81 °FPassing clouds.5 mph58%29.98 "HgN/A
1:20 PM82 °FPassing clouds.6 mph55%29.98 "HgN/A
12:50 PM82 °FPassing clouds.6 mph55%29.98 "HgN/A
12:20 PM82 °FSunny.2 mph51%29.98 "Hg10 mi
11:50 AM79 °FSunny.1 mph58%29.98 "Hg10 mi
11:20 AM77 °FSunny.2 mph61%30.01 "Hg10 mi
10:50 AM75 °FSunny.2 mph61%30.01 "Hg10 mi
10:20 AM73 °FSunny.2 mph61%30.04 "Hg10 mi
9:50 AM72 °FPassing clouds.5 mph65%30.04 "HgN/A
9:20 AM70 °FPassing clouds.6 mph69%30.04 "HgN/A
8:50 AM68 °FPassing clouds.6 mph73%30.07 "HgN/A
8:20 AM68 °FPassing clouds.6 mph78%30.07 "HgN/A
7:50 AM66 °FPassing clouds.5 mph83%30.09 "HgN/A
7:20 AM66 °FSunny.7 mph83%30.09 "Hg10 mi
6:50 AM66 °FSprinkles. Scattered clouds.5 mph83%30.09 "HgN/A
6:20 AM66 °FPassing clouds.3 mph78%30.09 "HgN/A
5:50 AM66 °FClear.3 mph78%30.09 "Hg10 mi
5:20 AM68 °FPassing clouds.5 mph73%30.09 "HgN/A
4:50 AM68 °FClear.7 mph73%30.09 "Hg10 mi
4:20 AM68 °FClear.1 mph78%30.12 "Hg10 mi
3:50 AM68 °FClear.1 mph78%30.12 "Hg10 mi
3:20 AM68 °FClear.3 mph78%30.15 "Hg10 mi
2:50 AM68 °FClear.5 mph78%30.15 "Hg10 mi
2:20 AM68 °FClear.5 mph78%30.15 "Hg10 mi
1:50 AM70 °FSprinkles. Clear.2 mph69%30.15 "HgN/A
1:20 AM70 °FClear.5 mph69%30.15 "Hg10 mi
12:50 AM72 °FClear.6 mph69%30.15 "Hg10 mi
12:20 AM70 °FClear.5 mph73%30.15 "Hg10 mi
11:50 PM
Sat, Jul 4
72 °FClear.2 mph69%30.15 "Hg10 mi
11:20 PM73 °FClear.5 mph61%30.15 "Hg10 mi
10:50 PM75 °FSunny.8 mph57%30.15 "Hg10 mi
10:20 PM77 °FSunny.9 mph57%30.12 "Hg10 mi
9:50 PM79 °FSunny.7 mph58%30.12 "Hg10 mi
9:20 PM81 °FPassing clouds.7 mph58%30.12 "HgN/A
8:50 PM82 °FPassing clouds.3 mph58%30.12 "HgN/A
8:20 PM82 °FPassing clouds.5 mph58%30.09 "HgN/A
7:50 PM84 °FSunny.6 mph55%30.12 "Hg10 mi
7:20 PM86 °FPassing clouds.7 mph52%30.12 "HgN/A
6:50 PM86 °FSunny.6 mph46%30.09 "Hg10 mi
6:20 PM88 °FPassing clouds.7 mph38%30.12 "HgN/A
5:50 PM91 °FPassing clouds.8 mph28%30.12 "HgN/A
5:20 PM91 °FPassing clouds.6 mph36%30.12 "HgN/A
Weather by CustomWeather, © 2015

See weather overviewHow to use our weather pages